CW9540 Weather Reports


Display with metric or nautical units.
time (UTC)temp
F
wind
direction
speed
MPH
gust
MPH
rain 1hr
in
rain 24hr
in
rain mn
in
humidity
%
barometer
mb
20200404095001 43 17 0.0 0.0 0.00 0.01 0.00 96 1014.0
20200404094502 43 17 0.0 0.0 0.00 0.01 0.00 96 1014.0
20200404094002 43 17 0.0 0.0 0.00 0.01 0.00 96 1014.0
20200404093502 43 17 0.0 0.0 0.00 0.01 0.00 96 1014.0
20200404093002 43 17 0.0 0.0 0.00 0.01 0.00 96 1014.0
20200404091002 43 17 0.0 0.0 0.00 0.01 0.00 96 1013.8
20200404090502 43 17 0.0 0.0 0.00 0.01 0.00 96 1013.8
20200404090002 43 17 0.0 0.0 0.00 0.01 0.00 96 1013.8
20200404085502 43 17 0.0 0.0 0.00 0.01 0.00 96 1013.8
20200404085002 43 17 0.0 0.0 0.00 0.01 0.00 96 1013.8
20200404084502 43 17 0.0 0.0 0.00 0.01 0.00 96 1013.8
20200404084002 43 17 0.0 0.0 0.00 0.01 0.00 96 1013.8
20200404083502 43 17 0.0 0.0 0.00 0.01 0.00 96 1013.8
20200404081002 44 17 0.0 0.0 0.00 0.01 0.00 96 1013.8
20200404080503 44 17 0.0 0.0 0.00 0.01 0.00 96 1013.8
20200404080003 44 17 0.0 0.0 0.00 0.01 0.00 96 1013.8
20200404075502 44 17 0.0 0.0 0.00 0.01 0.00 96 1013.7
20200404075002 44 17 0.0 0.0 0.00 0.01 0.00 96 1013.7
20200404074503 44 17 0.0 0.0 0.00 0.01 0.00 96 1013.7
20200404071502 44 17 0.0 0.0 0.00 0.01 0.00 96 1013.7
20200404071003 44 17 0.0 0.0 0.00 0.01 0.00 96 1013.7
20200404070502 44 17 0.0 0.0 0.00 0.01 0.00 96 1013.7
20200404065502 44 17 0.0 0.0 0.00 0.01 0.00 96 1013.7
20200404065002 44 17 0.0 0.0 0.00 0.01 0.00 96 1013.7
20200404064002 44 17 0.0 0.0 0.00 0.01 0.00 96 1013.8
20200404063502 44 17 0.0 0.0 0.00 0.01 0.00 96 1013.8
20200404062502 44 17 0.0 0.0 0.00 0.01 0.00 96 1013.8
20200404062002 44 17 0.0 0.0 0.00 0.01 0.00 96 1013.8
20200404061502 44 17 0.0 0.0 0.00 0.01 0.00 96 1013.8
20200404061002 44 17 0.0 0.0 0.00 0.01 0.00 96 1013.8
20200404055502 44 347 0.0 0.0 0.00 0.01 0.00 96 1013.8
20200404055002 44 347 0.0 0.0 0.00 0.01 0.00 96 1013.8
20200404053502 44 347 0.0 0.0 0.00 0.01 0.00 96 1013.7
20200404053002 44 347 0.0 0.0 0.00 0.01 0.00 96 1013.7
20200404050502 44 347 0.0 0.0 0.00 0.01 0.00 96 1013.8
20200404050002 44 347 0.0 0.0 0.00 0.01 0.00 96 1013.8
20200404044502 44 347 0.0 0.0 0.00 0.01 0.00 96 1013.8
20200404043502 44 347 0.0 0.0 0.00 0.01 0.00 96 1013.8
20200404043002 44 347 0.0 0.0 0.00 0.01 0.00 96 1013.8
20200404041502 44 351 0.0 0.0 0.00 0.01 0.00 96 1013.9
20200404041002 44 351 0.0 0.0 0.00 0.01 0.00 95 1013.9
20200404040002 44 346 0.0 0.0 0.00 0.01 0.00 96 1013.9
20200404033503 44 345 0.0 0.0 0.00 0.01 0.01 95 1013.9
20200404032002 44 343 0.0 0.0 0.00 0.01 0.01 95 1013.9
20200404031002 44 340 0.0 0.0 0.00 0.01 0.01 95 1014.1
20200404030502 44 340 0.0 0.0 0.00 0.01 0.01 95 1014.1
20200404025002 44 333 0.0 0.0 0.00 0.01 0.01 95 1014.1
20200404024503 44 329 1.0 5.0 0.00 0.01 0.01 95 1014.1
20200404024004 44 25 1.0 3.0 0.00 0.01 0.01 95 1014.1
20200404023002 44 355 0.0 0.0 0.00 0.01 0.01 95 1014.3
20200404022502 44 355 0.0 0.0 0.00 0.01 0.01 95 1014.3
20200404021502 44 12 0.0 0.0 0.00 0.01 0.01 95 1014.3
20200404021002 44 12 0.0 3.0 0.00 0.01 0.01 95 1014.3
20200404020503 44 1 0.0 0.0 0.00 0.01 0.01 95 1014.3
20200404020006 44 0 0.0 1.0 0.00 0.01 0.01 95 1014.3
20200404013503 45 17 1.0 6.0 0.00 0.01 0.01 95 1014.1
20200404013003 45 347 1.0 6.0 0.00 0.01 0.01 95 1014.1
20200404012002 45 17 1.0 5.0 0.00 0.01 0.01 95 1014.1
20200404010504 45 25 0.0 2.0 0.00 0.01 0.01 95 1014.0
20200404005003 45 328 2.0 3.0 0.00 0.01 0.01 95 1013.5
20200404004502 45 321 2.0 3.0 0.00 0.01 0.01 95 1013.5
20200404003503 45 309 0.0 0.0 0.00 0.01 0.01 95 1013.5
20200404001502 45 355 0.0 0.0 0.00 0.01 0.01 95 1013.5
20200404000503 45 355 1.0 3.0 0.00 0.01 0.01 95 1013.5
20200403235003 45 335 1.0 3.0 0.00 0.01 0.01 94 1013.5
20200403234502 45 346 0.0 2.0 0.00 0.01 0.01 94 1013.5
20200403232503 45 359 0.0 2.0 0.00 0.01 0.01 94 1013.5
20200403231503 45 282 0.0 2.0 0.00 0.01 0.01 94 1013.4
20200403230503 45 341 0.0 0.0 0.00 0.01 0.01 94 1013.4
20200403230003 45 341 2.0 5.0 0.00 0.01 0.01 93 1013.4
20200403225004 45 329 2.0 3.0 0.00 0.01 0.01 93 1013.2
20200403223502 45 273 0.0 5.0 0.00 0.01 0.01 93 1013.2
20200403223003 45 312 0.0 3.0 0.00 0.01 0.01 93 1013.2
20200403222502 45 330 2.0 3.0 0.00 0.01 0.01 93 1013.2
20200403221503 45 304 0.0 1.0 0.00 0.01 0.01 92 1012.9
20200403221002 45 304 0.0 3.0 0.00 0.01 0.01 92 1012.9
20200403220502 45 349 1.0 6.0 0.00 0.01 0.01 92 1012.9
20200403220003 45 348 2.0 5.0 0.00 0.01 0.01 92 1012.9
20200403214504 46 44 1.0 6.0 0.00 0.01 0.01 91 1012.9
20200403214006 46 354 1.0 5.0 0.00 0.01 0.01 90 1012.9
20200403213503 46 3 1.0 5.0 0.00 0.01 0.01 89 1012.9
20200403213003 46 292 0.0 3.0 0.00 0.01 0.01 89 1012.8
20200403212002 46 334 2.0 9.0 0.00 0.01 0.01 88 1012.3
20200403211503 46 344 1.0 7.0 0.00 0.01 0.01 89 1012.3
20200403210003 46 340 3.0 7.0 0.00 0.01 0.01 89 1012.3
20200403205503 46 344 3.0 7.0 0.00 0.01 0.01 89 1012.3
20200403204505 45 338 3.0 6.0 0.00 0.01 0.01 89 1012.3
20200403204003 45 0 2.0 5.0 0.00 0.01 0.01 90 1012.3
20200403203004 45 317 3.0 7.0 0.00 0.01 0.01 90 1012.1
20200403202504 45 5 1.0 5.0 0.00 0.01 0.01 90 1012.1
20200403201504 45 7 3.0 6.0 0.00 0.01 0.01 90 1012.1
20200403201008 45 330 3.0 7.0 0.00 0.01 0.01 90 1012.1
20200403200506 45 2 3.0 6.0 0.00 0.01 0.01 90 1012.1
20200403195510 46 352 1.0 3.0 0.00 0.01 0.01 91 1012.1
20200403195007 46 328 2.0 6.0 0.00 0.01 0.01 91 1012.1
20200403194505 45 336 3.0 7.0 0.00 0.01 0.01 91 1012.1
20200403194006 45 329 3.0 7.0 0.00 0.01 0.01 91 1012.1
20200403193504 45 353 3.0 6.0 0.00 0.01 0.01 91 1012.1
20200403193006 45 282 2.0 6.0 0.00 0.01 0.01 90 1012.1
20200403192007 45 11 1.0 3.0 0.00 0.01 0.01 91 1012.1
20200403191504 45 312 2.0 3.0 0.00 0.01 0.01 91 1012.1
20200403191005 45 336 0.0 5.0 0.00 0.01 0.01 91 1012.1
20200403190504 45 355 3.0 7.0 0.00 0.01 0.01 90 1012.1
20200403184503 45 343 3.0 3.0 0.00 0.01 0.01 91 1012.0
20200403184003 45 358 3.0 6.0 0.00 0.01 0.01 91 1012.0
20200403183003 45 328 3.0 7.0 0.00 0.01 0.01 91 1012.0
20200403182502 45 318 2.0 6.0 0.00 0.01 0.01 92 1012.0
20200403181002 44 10 1.0 3.0 0.01 0.01 0.01 93 1012.1
20200403180503 44 10 1.0 3.0 0.01 0.01 0.01 92 1012.1
20200403175502 44 288 2.0 5.0 0.01 0.01 0.01 92 1012.1
20200403175002 43 355 2.0 3.0 0.01 0.01 0.01 92 1012.1
20200403174003 43 353 3.0 7.0 0.01 0.01 0.01 92 1012.2
20200403172502 43 350 1.0 3.0 0.01 0.01 0.01 92 1012.2
20200403171002 43 323 2.0 3.0 0.00 0.00 0.00 93 1012.2
20200403170508 42 346 3.0 6.0 0.00 0.00 0.00 93 1012.2
20200403165502 42 340 0.0 3.0 0.00 0.00 0.00 93 1012.2
20200403165004 42 303 0.0 3.0 0.00 0.00 0.00 93 1012.2
20200403164504 42 318 3.0 3.0 0.00 0.00 0.00 93 1012.3
20200403164004 42 315 1.0 5.0 0.00 0.00 0.00 94 1012.3
20200403163504 42 309 0.0 5.0 0.00 0.00 0.00 94 1012.3
20200403162504 42 338 2.0 5.0 0.00 0.00 0.00 93 1012.3
20200403162005 42 317 1.0 5.0 0.00 0.00 0.00 94 1012.3
20200403161012 41 314 1.0 3.0 0.00 0.00 0.00 93 1012.3
20200403160507 41 323 1.0 5.0 0.00 0.00 0.00 93 1012.3
20200403160007 41 329 2.0 3.0 0.00 0.00 0.00 93 1012.3
20200403155012 41 352 2.0 6.0 0.00 0.00 0.00 93 1013.0
20200403154506 41 295 2.0 6.0 0.00 0.00 0.00 93 1012.9
20200403150502 40 304 2.0 5.0 0.00 0.00 0.00 93 1012.0
20200403150003 40 289 3.0 6.0 0.00 0.00 0.00 92 1012.0
20200403144503 40 305 3.0 3.0 0.00 0.00 0.00 92 1012.0
20200403144003 40 310 1.0 3.0 0.00 0.00 0.00 92 1012.0
20200403143503 40 355 1.0 3.0 0.00 0.00 0.00 93 1012.0
20200403143003 40 315 2.0 5.0 0.00 0.00 0.00 92 1012.0
20200403142003 40 325 2.0 5.0 0.00 0.00 0.00 92 1011.7
20200403141502 39 324 2.0 6.0 0.00 0.00 0.00 92 1011.7
20200403134003 39 301 2.0 7.0 0.00 0.00 0.00 92 1011.4
20200403133502 39 288 2.0 6.0 0.00 0.00 0.00 92 1011.4
20200403133003 39 321 2.0 5.0 0.00 0.00 0.00 92 1011.4
20200403132502 39 304 1.0 3.0 0.00 0.00 0.00 92 1011.4
20200403132003 39 321 2.0 7.0 0.00 0.00 0.00 91 1011.3
20200403131003 39 359 2.0 10.0 0.00 0.00 0.00 91 1011.3
20200403130503 39 296 4.0 7.0 0.00 0.00 0.00 90 1011.3
20200403124503 39 43 2.0 7.0 0.00 0.00 0.00 89 1011.3
20200403124003 39 316 2.0 7.0 0.00 0.00 0.00 89 1011.3
20200403123503 39 292 1.0 3.0 0.00 0.00 0.00 88 1011.3
20200403123003 39 337 1.0 3.0 0.00 0.00 0.00 88 1011.3
20200403122503 39 333 0.0 0.0 0.00 0.00 0.00 87 1011.3
20200403122003 39 347 1.0 5.0 0.00 0.00 0.00 86 1011.3
20200403121503 39 325 1.0 3.0 0.00 0.00 0.00 86 1011.3
20200403120503 39 329 3.0 6.0 0.00 0.00 0.00 83 1011.3
20200403120003 39 329 2.0 6.0 0.00 0.00 0.00 83 1011.3
20200403115003 40 314 3.0 8.0 0.00 0.00 0.00 81 1011.2
20200403114503 40 314 2.0 6.0 0.00 0.00 0.00 79 1011.0
20200403114003 40 331 3.0 5.0 0.00 0.00 0.00 78 1011.0
20200403113503 40 302 2.0 5.0 0.00 0.00 0.00 77 1011.0
20200403113003 41 286 4.0 7.0 0.00 0.00 0.00 76 1011.0
20200403112502 41 338 3.0 8.0 0.00 0.00 0.00 75 1010.8
20200403112003 41 301 1.0 6.0 0.00 0.00 0.00 74 1010.8
20200403111003 41 317 3.0 6.0 0.00 0.00 0.00 73 1010.8
20200403110503 41 323 2.0 7.0 0.00 0.00 0.00 73 1010.8
20200403110002 41 321 1.0 6.0 0.00 0.00 0.00 73 1010.8
20200403105503 41 353 1.0 3.0 0.00 0.00 0.00 72 1010.3
20200403105003 41 289 3.0 7.0 0.00 0.00 0.00 72 1010.3
20200403104503 41 349 1.0 6.0 0.00 0.00 0.00 72 1010.3
20200403104003 41 348 3.0 6.0 0.00 0.00 0.00 72 1010.3
20200403102503 41 352 1.0 6.0 0.00 0.00 0.00 74 1010.3
20200403101503 41 322 2.0 5.0 0.00 0.00 0.00 73 1010.2
20200403101003 41 348 2.0 3.0 0.00 0.00 0.00 73 1010.2
20200403100503 41 318 1.0 6.0 0.00 0.00 0.00 74 1010.2
20200403100003 41 332 4.0 7.0 0.00 0.00 0.00 73 1010.1